Regional Weather Roundup
Issued by NWS

Home | Current Version | Previous Version | Graphics & Text | Print | Product List | Glossary On
Versions: 1 2 3 4 5 6 7 8 9 10 11 12 13 14 15 16 17 18 19 20 21 22 23 24 25 26 27 28 29 30 31 32 33 34 35 36 37 38 39 40 41 42 43 44 45 46 47 48 49 50
677
ASUS45 KBOI 221410
RWRID

IDAHO REGIONAL WEATHER ROUNDUP
NATIONAL WEATHER SERVICE BOISE ID
800 AM MDT TUE AUG 22 2017

NOTE: "FAIR" INDICATES FEW OR NO CLOUDS BELOW 12000 FEET
WITH NO SIGNIFICANT WEATHER AND/OR OBSTRUCTIONS TO VISIBILITY

IDZ012-014-221500-
SOUTHWEST IDAHO


CITY           SKY/WX    TMP DP  RH WIND       PRES   REMARKS
BOISE          SUNNY     63  39  41 SE5       30.11R
CALDWELL       CLEAR     55  45  68 NE3       30.10R
$$

IDZ016-017-221500-
SOUTHCENTRAL IDAHO


CITY           SKY/WX    TMP DP  RH WIND       PRES   REMARKS
BURLEY         SUNNY     50  42  74 CALM      30.19R
JEROME         SUNNY     63  39  41 NE9       30.19R
TWIN FALLS     SUNNY     59  37  44 S7        30.18R
$$

IDZ019>023-221500-
SOUTHEAST IDAHO


CITY           SKY/WX    TMP DP  RH WIND       PRES   REMARKS
IDAHO FALLS    SUNNY     48  41  76 N5        30.26R
POCATELLO      SUNNY     52  36  54 CALM      30.24R
REXBURG        SUNNY     48  39  71 CALM      30.27R
$$

IDZ006-010-011-018-031-032-221500-
CENTRAL IDAHO MOUNTAINS


CITY           SKY/WX    TMP DP  RH WIND       PRES   REMARKS
MCCALL         SUNNY     48  36  63 CALM      30.23R
HAILEY         SUNNY     50  37  62 W9        30.30R
STANLEY          N/A     38  31  76 CALM      30.37R
SALMON         SUNNY     46  38  73 CALM      30.25R
CHALLIS        SUNNY     52  34  50 CALM      30.28R
$$

IDZ002-004-006-007-026-221500-
NORTHERN IDAHO


CITY           SKY/WX    TMP DP  RH WIND       PRES   REMARKS
LEWISTON       CLEAR     63  46  54 SE3       30.05R
LOWELL           N/A     52  47  83 N3        30.15R
COEUR D`ALENE  SUNNY     60  46  59 NE9       30.10R
MULLAN PASS    SUNNY     59  34  39 SE8       30.26S
$$




USA.gov is the U.S. government's official web portal to all federal, state and local government web resources and services.